Radiation Dose at Monitoring Post of Fukushima Daini Nuclear Power Station
Date,Time,MP-1(microSv/h),MP-2(microSv/h),MP-3(microSv/h),MP-4(microSv/h),MP-5(microSv/h),MP-6(microSv/h),MP-7(microSv/h),Wind Direction,Wind Velocity(m/s),Rain
2015/04/20,00:00,0.541,0.333,0.566,0.527,0.559,0.254,0.226,north,3.8,Yes
2015/04/20,00:10,0.540,0.333,0.566,0.526,0.556,0.254,0.225,north,4.7,Yes
2015/04/20,00:20,0.544,0.335,0.568,0.528,0.560,0.253,0.225,north-northwest,4.9,Yes
2015/04/20,00:30,0.539,0.333,0.563,0.527,0.557,0.253,0.225,north,5.6,Yes
2015/04/20,00:40,0.542,0.334,0.568,0.526,0.557,0.252,0.225,north,5.1,Yes
2015/04/20,00:50,0.541,0.334,0.565,0.525,0.558,0.253,0.223,north,6.2,Yes
2015/04/20,01:00,0.540,0.331,0.567,0.524,0.555,0.253,0.223,north,5.8,Yes
2015/04/20,01:10,0.541,0.333,0.568,0.525,0.557,0.252,0.224,north,6.4,Yes
2015/04/20,01:20,0.538,0.332,0.565,0.524,0.555,0.254,0.224,north-northwest,6.4,Yes
2015/04/20,01:30,0.542,0.332,0.567,0.526,0.556,0.251,0.224,north,5.7,Yes
2015/04/20,01:40,0.539,0.333,0.563,0.525,0.556,0.252,0.222,north,5.3,Yes
2015/04/20,01:50,0.541,0.330,0.567,0.526,0.553,0.251,0.223,north,6.0,Yes
2015/04/20,02:00,0.539,0.333,0.563,0.527,0.556,0.252,0.223,north,6.7,Yes
2015/04/20,02:10,0.539,0.331,0.564,0.523,0.557,0.251,0.222,north,5.3,Yes
2015/04/20,02:20,0.542,0.332,0.566,0.529,0.554,0.251,0.223,north,6.6,Yes
2015/04/20,02:30,0.536,0.332,0.563,0.523,0.556,0.252,0.223,north,5.7,No
2015/04/20,02:40,0.540,0.330,0.567,0.526,0.555,0.250,0.222,north-northwest,4.9,No
2015/04/20,02:50,0.538,0.334,0.563,0.526,0.553,0.250,0.224,north-northwest,4.6,No
2015/04/20,03:00,0.539,0.331,0.565,0.524,0.553,0.251,0.222,north-northwest,5.3,No
2015/04/20,03:10,0.537,0.332,0.566,0.526,0.553,0.252,0.222,north-northwest,7.5,No
2015/04/20,03:20,0.537,0.331,0.562,0.523,0.555,0.250,0.223,north-northwest,7.8,No
2015/04/20,03:30,0.541,0.330,0.566,0.525,0.552,0.251,0.222,north-northwest,7.0,No
2015/04/20,03:40,0.536,0.332,0.565,0.523,0.554,0.250,0.223,north-northwest,5.3,No
2015/04/20,03:50,0.539,0.330,0.566,0.523,0.555,0.250,0.222,north,5.0,No
2015/04/20,04:00,0.539,0.329,0.565,0.524,0.553,0.250,0.221,north,4.6,No
2015/04/20,04:10,0.537,0.332,0.561,0.523,0.555,0.250,0.221,north,4.7,No
2015/04/20,04:20,0.538,0.329,0.564,0.525,0.553,0.249,0.221,north,5.1,No
2015/04/20,04:30,0.539,0.330,0.563,0.524,0.553,0.250,0.220,north,5.4,No
2015/04/20,04:40,0.542,0.332,0.564,0.523,0.555,0.251,0.221,north,5.5,No
2015/04/20,04:50,0.538,0.331,0.564,0.528,0.552,0.249,0.221,north-northeast,4.9,No
2015/04/20,05:00,0.538,0.331,0.561,0.524,0.553,0.250,0.222,north-northeast,4.7,No
2015/04/20,05:10,0.540,0.330,0.566,0.525,0.553,0.250,0.222,north,5.8,No
2015/04/20,05:20,0.537,0.330,0.564,0.524,0.551,0.249,0.221,north,5.1,No
2015/04/20,05:30,0.540,0.330,0.564,0.522,0.555,0.250,0.221,north-northwest,4.8,No
2015/04/20,05:40,0.538,0.330,0.564,0.526,0.552,0.251,0.220,north,5.9,No
2015/04/20,05:50,0.539,0.332,0.562,0.523,0.553,0.249,0.221,north,5.3,No
2015/04/20,06:00,0.537,0.330,0.565,0.522,0.553,0.249,0.222,north,5.0,No
2015/04/20,06:10,0.537,0.330,0.561,0.523,0.553,0.248,0.221,north,4.9,No
2015/04/20,06:20,0.540,0.332,0.565,0.522,0.555,0.251,0.222,north,4.0,No
2015/04/20,06:30,0.537,0.330,0.564,0.524,0.553,0.252,0.223,north-northwest,3.9,No
2015/04/20,06:40,0.539,0.330,0.563,0.521,0.554,0.250,0.221,north,3.9,No
2015/04/20,06:50,0.537,0.330,0.566,0.525,0.554,0.250,0.221,north-northwest,4.0,No
2015/04/20,07:00,0.538,0.331,0.561,0.523,0.553,0.249,0.222,north,3.9,No
2015/04/20,07:10,0.538,0.333,0.564,0.524,0.555,0.250,0.222,north,3.6,No
2015/04/20,07:20,0.537,0.330,0.562,0.524,0.553,0.250,0.221,north,3.3,No
2015/04/20,07:30,0.539,0.330,0.565,0.522,0.556,0.250,0.222,north,3.5,No
2015/04/20,07:40,0.537,0.330,0.563,0.526,0.553,0.249,0.222,north,2.6,No
2015/04/20,07:50,0.538,0.330,0.562,0.521,0.554,0.250,0.222,north,3.1,No
2015/04/20,08:00,0.538,0.330,0.564,0.527,0.555,0.249,0.221,north,2.4,No
2015/04/20,08:10,0.538,0.331,0.562,0.523,0.550,0.250,0.221,north,3.1,No
2015/04/20,08:20,0.539,0.331,0.566,0.525,0.557,0.250,0.223,north,3.3,No
2015/04/20,08:30,0.536,0.328,0.562,0.524,0.551,0.250,0.221,north,3.3,No
2015/04/20,08:40,0.540,0.331,0.565,0.524,0.559,0.250,0.222,north,2.8,No
2015/04/20,08:50,0.537,0.330,0.562,0.524,0.552,0.250,0.223,north-northeast,2.0,No
2015/04/20,09:00,0.537,0.329,0.566,0.519,0.554,0.250,0.223,north-northeast,3.2,No
2015/04/20,09:10,0.538,0.331,0.562,0.526,0.555,0.250,0.222,north,2.8,No
2015/04/20,09:20,0.535,0.329,0.563,0.524,0.554,0.252,0.222,north-northeast,2.2,No
2015/04/20,09:30,0.539,0.331,0.563,0.525,0.558,0.250,0.223,north-northeast,1.8,No
2015/04/20,09:40,0.537,0.329,0.563,0.523,0.553,0.250,0.223,north,1.4,No
2015/04/20,09:50,0.540,0.331,0.567,0.524,0.557,0.250,0.223,north-northeast,1.1,No
2015/04/20,10:00,0.536,0.330,0.560,0.524,0.553,0.250,0.222,northeast,0.5,No
2015/04/20,10:10,0.540,0.329,0.567,0.523,0.557,0.250,0.223,east-northeast,1.1,No
2015/04/20,10:20,0.537,0.330,0.561,0.528,0.553,0.250,0.223,east-northeast,1.0,No
2015/04/20,10:30,0.537,0.330,0.564,0.522,0.557,0.250,0.223,east-northeast,1.1,No
2015/04/20,10:40,0.540,0.331,0.564,0.526,0.555,0.251,0.222,east,1.3,No
2015/04/20,10:50,0.538,0.329,0.564,0.524,0.555,0.250,0.223,east-northeast,1.4,No
2015/04/20,11:00,0.540,0.331,0.563,0.526,0.557,0.250,0.222,northeast,1.5,Yes
2015/04/20,11:10,0.537,0.332,0.564,0.523,0.553,0.251,0.223,-,CALM,Yes
2015/04/20,11:20,0.544,0.331,0.568,0.525,0.560,0.251,0.224,south,2.2,Yes
2015/04/20,11:30,0.540,0.334,0.565,0.530,0.555,0.252,0.225,south,3.6,Yes
2015/04/20,11:40,0.539,0.334,0.568,0.526,0.559,0.255,0.227,south,3.9,Yes
2015/04/20,11:50,0.542,0.335,0.566,0.528,0.556,0.254,0.227,south-southwest,3.9,Yes
2015/04/20,12:00,0.539,0.334,0.564,0.525,0.554,0.252,0.226,south-southwest,4.8,Yes
2015/04/20,12:10,0.540,0.332,0.564,0.522,0.557,0.255,0.224,south-southwest,5.6,Yes
2015/04/20,12:20,0.535,0.334,0.561,0.522,0.551,0.253,0.224,south,7.1,Yes
2015/04/20,12:30,0.538,0.332,0.563,0.520,0.554,0.252,0.223,south-southwest,7.3,Yes
2015/04/20,12:40,0.535,0.330,0.557,0.519,0.550,0.251,0.223,south,6.6,Yes
2015/04/20,12:50,0.536,0.330,0.560,0.518,0.548,0.250,0.223,south-southwest,7.2,Yes
2015/04/20,13:00,0.536,0.329,0.558,0.518,0.552,0.251,0.221,south-southwest,7.4,Yes
2015/04/20,13:10,0.533,0.330,0.557,0.517,0.549,0.251,0.221,south,7.8,Yes
2015/04/20,13:20,0.535,0.330,0.557,0.518,0.549,0.250,0.221,south,8.3,Yes
2015/04/20,13:30,0.533,0.329,0.555,0.515,0.550,0.251,0.221,south-southwest,8.4,Yes
2015/04/20,13:40,0.533,0.332,0.556,0.519,0.547,0.251,0.221,south,7.5,Yes
2015/04/20,13:50,0.534,0.328,0.556,0.517,0.550,0.250,0.220,south,7.8,Yes
2015/04/20,14:00,0.531,0.330,0.552,0.514,0.548,0.248,0.221,south,8.5,Yes
2015/04/20,14:10,0.534,0.328,0.555,0.517,0.551,0.249,0.219,south,9.2,Yes
2015/04/20,14:20,0.531,0.328,0.552,0.513,0.547,0.248,0.220,south,8.9,Yes
2015/04/20,14:30,0.532,0.327,0.554,0.515,0.548,0.248,0.219,south-southwest,9.2,Yes
2015/04/20,14:40,0.531,0.326,0.552,0.513,0.550,0.249,0.217,south-southwest,9.5,Yes
2015/04/20,14:50,0.531,0.329,0.553,0.514,0.546,0.247,0.217,south-southwest,9.8,No
2015/04/20,15:00,0.532,0.326,0.552,0.513,0.552,0.248,0.217,south-southwest,9.3,Yes
2015/04/20,15:10,0.528,0.327,0.551,0.512,0.546,0.246,0.217,south,9.3,Yes
2015/04/20,15:20,0.532,0.324,0.550,0.514,0.548,0.246,0.217,south-southwest,10.1,Yes
2015/04/20,15:30,0.526,0.326,0.549,0.511,0.546,0.247,0.217,south-southwest,10.7,Yes
2015/04/20,15:40,0.531,0.324,0.553,0.513,0.548,0.246,0.215,south-southwest,10.7,Yes
2015/04/20,15:50,0.525,0.324,0.546,0.512,0.549,0.247,0.216,south-southwest,11.8,Yes
2015/04/20,16:00,0.532,0.324,0.551,0.512,0.546,0.245,0.216,south-southwest,11.1,Yes
2015/04/20,16:10,0.528,0.325,0.547,0.512,0.548,0.246,0.217,south-southwest,11.3,Yes
2015/04/20,16:20,0.531,0.325,0.549,0.508,0.544,0.245,0.216,south,12.4,Yes
2015/04/20,16:30,0.528,0.323,0.549,0.513,0.547,0.246,0.216,south,11.5,No
2015/04/20,16:40,0.528,0.325,0.551,0.508,0.545,0.247,0.216,south-southwest,12.3,Yes
2015/04/20,16:50,0.532,0.324,0.550,0.514,0.548,0.245,0.216,south-southwest,10.3,Yes
2015/04/20,17:00,0.529,0.325,0.549,0.510,0.547,0.245,0.215,south,10.3,Yes
2015/04/20,17:10,0.529,0.323,0.550,0.513,0.545,0.246,0.215,south,10.4,No
2015/04/20,17:20,0.528,0.324,0.548,0.510,0.548,0.247,0.216,south,12.4,No
2015/04/20,17:30,0.530,0.323,0.553,0.512,0.543,0.246,0.216,south,10.0,No
2015/04/20,17:40,0.528,0.324,0.548,0.511,0.548,0.247,0.216,south,10.1,Yes
2015/04/20,17:50,0.531,0.326,0.551,0.510,0.546,0.246,0.216,south,13.1,No
2015/04/20,18:00,0.525,0.324,0.545,0.512,0.549,0.247,0.217,south,11.5,Yes
2015/04/20,18:10,0.531,0.325,0.552,0.509,0.544,0.244,0.216,south,12.5,No
2015/04/20,18:20,0.526,0.324,0.549,0.514,0.549,0.246,0.216,south,10.4,Yes
2015/04/20,18:30,0.529,0.323,0.550,0.509,0.543,0.244,0.216,south-southwest,10.3,Yes
2015/04/20,18:40,0.526,0.325,0.547,0.514,0.550,0.245,0.215,south,9.2,Yes
2015/04/20,18:50,0.530,0.325,0.552,0.508,0.543,0.246,0.216,south,8.5,Yes
2015/04/20,19:00,0.526,0.324,0.548,0.513,0.548,0.246,0.215,south-southwest,11.0,Yes
2015/04/20,19:10,0.530,0.324,0.551,0.510,0.543,0.244,0.216,south-southwest,9.5,Yes
2015/04/20,19:20,0.524,0.323,0.548,0.512,0.548,0.245,0.215,south-southwest,9.8,Yes
2015/04/20,19:30,0.530,0.324,0.550,0.507,0.542,0.245,0.214,south,9.1,Yes
2015/04/20,19:40,0.525,0.324,0.547,0.511,0.549,0.247,0.215,south,9.3,Yes
2015/04/20,19:50,0.528,0.324,0.548,0.505,0.543,0.246,0.215,south,11.3,Yes
2015/04/20,20:00,0.524,0.322,0.547,0.511,0.545,0.245,0.215,south,12.2,Yes
2015/04/20,20:10,0.527,0.324,0.545,0.506,0.542,0.244,0.214,south,11.2,Yes
2015/04/20,20:20,0.523,0.323,0.543,0.508,0.544,0.244,0.215,south-southwest,9.5,Yes
2015/04/20,20:30,0.527,0.324,0.545,0.503,0.543,0.244,0.216,south,10.4,Yes
2015/04/20,20:40,0.521,0.321,0.542,0.507,0.544,0.245,0.214,south,9.6,Yes
2015/04/20,20:50,0.527,0.324,0.544,0.504,0.543,0.244,0.214,south,10.1,Yes
2015/04/20,21:00,0.523,0.322,0.540,0.507,0.543,0.244,0.213,south-southwest,7.5,Yes
2015/04/20,21:10,0.525,0.323,0.542,0.503,0.543,0.244,0.214,south-southwest,10.1,Yes
2015/04/20,21:20,0.520,0.320,0.540,0.504,0.544,0.243,0.214,south,9.5,Yes
2015/04/20,21:30,0.526,0.324,0.543,0.502,0.543,0.243,0.213,south,12.4,Yes
2015/04/20,21:40,0.521,0.320,0.540,0.507,0.544,0.244,0.213,south,13.2,Yes
2015/04/20,21:50,0.524,0.322,0.542,0.502,0.542,0.243,0.213,south,11.6,Yes
2015/04/20,22:00,0.520,0.321,0.542,0.506,0.545,0.243,0.213,south,9.3,Yes
2015/04/20,22:10,0.526,0.324,0.542,0.502,0.542,0.242,0.214,south-southwest,8.0,Yes
2015/04/20,22:20,0.522,0.322,0.543,0.506,0.546,0.243,0.212,south,10.1,Yes
2015/04/20,22:30,0.527,0.322,0.542,0.502,0.541,0.242,0.213,south,7.8,Yes
2015/04/20,22:40,0.523,0.320,0.542,0.506,0.546,0.243,0.213,south,7.5,Yes
2015/04/20,22:50,0.525,0.324,0.538,0.503,0.543,0.242,0.214,south,8.2,Yes
2015/04/20,23:00,0.522,0.322,0.544,0.508,0.545,0.244,0.212,south-southwest,7.3,Yes
2015/04/20,23:10,0.524,0.323,0.540,0.502,0.541,0.243,0.214,south,7.2,No
2015/04/20,23:20,0.522,0.321,0.544,0.506,0.546,0.243,0.212,south-southwest,8.1,Yes
2015/04/20,23:30,0.526,0.322,0.539,0.501,0.542,0.243,0.214,south-southwest,9.5,No
2015/04/20,23:40,0.520,0.321,0.544,0.507,0.545,0.243,0.212,south,8.7,No
2015/04/20,23:50,0.525,0.323,0.540,0.503,0.541,0.244,0.213,south-southwest,8.9,Yes
